Location: Unspecified
(0.0000°N, 0.0000°E)
Time: 04:40:09
(UTC+00:00)

AO-109 - Visible Passes

Search period start: 23 October 2021 00:00
Search period end: 02 November 2021 00:00
Orbit: 471 x 527 km, 60.7° (Epoch: 22 October)

Date Brightness Start Highest point End Pass type
(mag) Time Alt. Az. Time Alt. Az. Time Alt. Az.
29 Oct ? 19:21:15 10° NNW 19:23:22 33° NW 19:23:22 33° NW visible
30 Oct ? 18:59:55 10° NNW 19:03:37 80° WSW 19:07:22 10° SSE visible
31 Oct ? 18:38:36 10° NNW 18:42:17 88° WSW 18:46:04 10° SSE visible
01 Nov ? 18:17:17 10° NNW 18:20:58 84° ENE 18:24:44 10° SSE visible
